Surface/Precipitation History
12/02/2016 12:45  to  12/3/2016 12:45
Change End Date:
Date/Time
(MST)
Sf
Temp Chem Water Layer Surface Precipitation
Sfc Pvt Sub Frz Factor Pct Dpth DpthThk IcePct Cond Salin FI Type Intens Accum Rate
12/03/2016 12:41 Wet 32.9F - - 32F 95 0% 0.00 in - 0% 6 mhos 0 - Yes - - -
12/03/2016 12:35 Wet 32.5F - - 32F 95 0% 0.00 in - 0% 5 mhos 0 - Yes - - -
12/03/2016 12:26 Ice Warning 32.0F - - 32F 95 0% - - 100% 5 mhos 0 - Yes - - -
12/03/2016 12:25 Ice Warning 31.8F - - 32F 95 0% - - 100% 5 mhos 0 - Yes - - -
12/03/2016 12:15 Ice Warning 30.6F - - 32F 90 0% - - 100% 1 mhos 0 - Yes - - -
12/03/2016 12:10 Ice Warning 30.0F - - 32F 80 0% - - 100% 1 mhos 0 - Yes - - -
12/03/2016 12:05 Ice Warning 29.3F - - 32F 85 0% - - 100% 1 mhos 0 - Yes - - -
12/03/2016 11:56 Ice Warning 29.7F - - 32F 90 0% - - 100% 1 mhos 0 - Yes - - -
12/03/2016 11:55 Ice Warning 29.8F - - 32F 70 0% - - 100% 1 mhos 0 - Yes - - -
12/03/2016 11:45 Ice Warning 29.8F - - 32F 55 0% - - 100% 1 mhos 0 - Yes - - -
12/03/2016 11:41 Ice Warning 30.0F - - 32F 75 0% - - 100% 1 mhos 0 - Yes - - -
12/03/2016 11:35 Ice Warning 29.7F - - 32F 85 0% - - 100% 1 mhos 0 - Yes - - -
12/03/2016 11:26 Ice Warning 29.3F - - 32F 65 0% - - 100% 1 mhos 0 - Yes - - -
12/03/2016 11:25 Ice Warning 29.3F - - 32F 70 0% - - 100% 1 mhos 0 - Yes - - -
12/03/2016 11:15 Ice Warning 28.8F - - 32F 95 0% - - 100% 1 mhos 0 - Yes - - -
Date/Time
(MST)
Sf
Temp Chem Water Layer Surface Precipitation
Sfc Pvt Sub Frz Factor Pct Dpth DpthThk IcePct Cond Salin FI Type Intens Accum Rate
12/03/2016 11:11 Ice Warning 28.6F - - 32F 85 0% - - 100% 1 mhos 0 - Yes - - -
12/03/2016 11:05 Ice Warning 28.4F - - 32F 85 0% - - 100% 1 mhos 0 - Yes - - -
12/03/2016 10:55 Ice Warning 27.9F - - 32F 75 0% - - 100% 1 mhos 0 - Yes - - -
12/03/2016 10:55 Ice Warning 27.9F - - 32F 70 0% - - 100% 1 mhos 0 - Yes - - -
12/03/2016 10:45 Ice Warning 27.1F - - 32F 75 0% - - 100% 1 mhos 0 - Yes - - -
12/03/2016 10:40 Ice Warning 27.3F - - 32F 75 0% - - 100% 1 mhos 0 - None None - -
12/03/2016 10:35 Ice Warning 26.6F - - 32F 75 0% - - 100% 1 mhos 0 - None None - -
12/03/2016 10:26 Ice Warning 26.1F - - 32F 60 0% - - 100% 1 mhos 0 - Yes - - -
12/03/2016 10:25 Ice Warning 25.9F - - 32F 55 0% - - 100% 1 mhos 0 - Yes - - -
12/03/2016 10:14 Ice Warning 25.7F - - 32F 55 0% - - 100% 1 mhos 0 - Yes - - -
12/03/2016 10:04 Ice Warning 25.3F - - 32F 60 0% - - 100% 1 mhos 0 - Yes - - -
12/03/2016 09:56 Ice Warning 25.0F - - 32F 50 0% - - 100% 1 mhos 0 - Yes - - -
12/03/2016 09:54 Ice Warning 25.0F - - 32F 50 0% - - 100% 1 mhos 0 - Yes - - -
12/03/2016 09:44 Ice Warning 24.6F - - 32F 45 0% - - 100% 1 mhos 0 - Yes - - -
12/03/2016 09:41 Ice Warning 24.4F - - 32F 45 0% - - 100% 1 mhos 0 - Yes - - -
Date/Time
(MST)
Sf
Temp Chem Water Layer Surface Precipitation
Sfc Pvt Sub Frz Factor Pct Dpth DpthThk IcePct Cond Salin FI Type Intens Accum Rate
12/03/2016 09:34 Ice Warning 23.5F - - 32F 45 0% - - 100% 1 mhos 0 - None None - -
12/03/2016 09:26 Ice Warning 23.2F - - 32F 40 0% - - 100% 1 mhos 0 - None None - -
12/03/2016 09:24 Ice Warning 23.2F - - 32F 40 0% - - 100% 1 mhos 0 - Yes - - -
12/03/2016 09:14 Ice Warning 23.4F - - 32F 40 0% - - 100% 1 mhos 0 - Yes - - -
12/03/2016 09:10 Ice Warning 23.5F - - 32F 45 0% - - 100% 1 mhos 0 - None None - -
12/03/2016 09:04 Ice Warning 23.9F - - 32F 45 0% - - 100% 1 mhos 0 - None None - -
12/03/2016 08:56 Ice Warning 23.7F - - 32F 40 0% - - 100% 1 mhos 0 - Yes - - -
12/03/2016 08:54 Ice Warning 23.9F - - 32F 40 0% - - 100% 1 mhos 0 - Yes - - -
12/03/2016 08:44 Ice Warning 23.4F - - 32F 35 0% - - 100% 1 mhos 0 - Yes - - -
12/03/2016 08:40 Ice Warning 23.2F - - 32F 35 0% - - 100% 1 mhos 0 - Yes - - -
12/03/2016 08:34 Ice Warning 23.0F - - 32F 35 0% - - 100% 1 mhos 0 - Yes - - -
12/03/2016 08:26 Ice Warning 22.8F - - 32F 30 0% - - 100% 1 mhos 0 - Yes - - -
12/03/2016 08:24 Ice Warning 22.8F - - 32F 30 0% - - 100% 1 mhos 0 - Yes - - -
12/03/2016 08:14 Ice Warning 22.6F - - 32F 30 0% - - 100% 1 mhos 0 - Yes - - -
12/03/2016 08:11 Ice Warning 22.5F - - 32F 30 0% - - 100% 1 mhos 0 - Yes - - -
Date/Time
(MST)
Sf
Temp Chem Water Layer Surface Precipitation
Sfc Pvt Sub Frz Factor Pct Dpth DpthThk IcePct Cond Salin FI Type Intens Accum Rate
12/03/2016 08:04 Ice Warning 22.1F - - 32F 30 0% - - 100% 1 mhos 0 - None None - -
12/03/2016 07:56 Ice Warning 21.7F - - 32F 30 0% - - 100% 1 mhos 0 - None None - -
12/03/2016 07:54 Ice Warning 21.9F - - 32F 30 0% - - 100% 1 mhos 0 - None None - -
12/03/2016 07:44 Ice Warning 21.4F - - 32F 30 0% - - 100% 1 mhos 0 - Yes - - -
12/03/2016 07:41 Ice Warning 21.2F - - 32F 30 0% - - 100% 1 mhos 0 - Yes - - -
12/03/2016 07:34 Ice Warning 21.0F - - 32F 25 0% - - 100% 1 mhos 0 - Yes - - -
12/03/2016 07:26 Ice Warning 20.8F - - 32F 25 0% - - 100% 1 mhos 0 - Yes - - -
12/03/2016 07:24 Ice Warning 20.7F - - 32F 30 0% - - 100% 1 mhos 0 - Yes - - -
12/03/2016 07:14 Ice Warning 21.0F - - 32F 25 0% - - 100% 1 mhos 0 - Yes - - -
12/03/2016 07:11 Ice Warning 21.0F - - 32F 25 0% - - 100% 1 mhos 0 - Yes - - -
12/03/2016 07:04 Ice Warning 21.0F - - 32F 25 0% - - 100% 1 mhos 0 - Yes - - -
12/03/2016 06:56 Ice Warning 21.4F - - 32F 25 0% - - 100% 1 mhos 0 - Yes - - -
12/03/2016 06:53 Ice Warning 21.4F - - 32F 30 0% - - 100% 1 mhos 0 - Yes - - -
12/03/2016 06:43 Ice Warning 21.6F - - 32F 25 0% - - 100% 1 mhos 0 - Yes - - -
12/03/2016 06:41 Ice Warning 21.6F - - 32F 25 0% - - 100% 1 mhos 0 - Yes - - -
Date/Time
(MST)
Sf
Temp Chem Water Layer Surface Precipitation
Sfc Pvt Sub Frz Factor Pct Dpth DpthThk IcePct Cond Salin FI Type Intens Accum Rate
12/03/2016 06:33 Ice Warning 21.7F - - 32F 25 0% - - 100% 1 mhos 0 - Yes - - -
12/03/2016 06:26 Ice Warning 22.1F - - 32F 25 0% - - 100% 1 mhos 0 - Yes - - -
12/03/2016 06:23 Ice Warning 22.1F - - 32F 25 0% - - 100% 1 mhos 0 - Yes - - -
12/03/2016 06:13 Ice Warning 22.1F - - 32F 25 0% - - 100% 1 mhos 0 - Yes - - -
12/03/2016 06:11 Ice Warning 22.1F - - 32F 35 0% - - 100% 1 mhos 0 - Yes - - -
12/03/2016 06:03 Ice Warning 22.3F - - 32F 35 0% - - 100% 1 mhos 0 - Yes - - -
12/03/2016 05:56 Ice Warning 22.5F - - 32F 40 0% - - 100% 1 mhos 0 - Yes - - -
12/03/2016 05:53 Ice Warning 22.5F - - 32F 40 0% - - 100% 1 mhos 0 - Yes - - -
12/03/2016 05:43 Ice Warning 22.1F - - 32F 45 0% - - 100% 1 mhos 0 - Yes - - -
12/03/2016 05:41 Ice Warning 22.1F - - 32F 45 0% - - 100% 1 mhos 0 - Yes - - -
12/03/2016 05:33 Ice Warning 22.1F - - 32F 45 0% - - 100% 1 mhos 0 - Yes - - -
12/03/2016 05:26 Ice Warning 22.1F - - 32F 45 0% - - 100% 1 mhos 0 - Yes - - -
12/03/2016 05:23 Ice Warning 21.9F - - 32F 45 0% - - 100% 1 mhos 0 - Yes - - -
12/03/2016 05:13 Ice Warning 21.7F - - 32F 40 0% - - 100% 1 mhos 0 - Yes - - -
12/03/2016 05:11 Ice Warning 21.9F - - 32F 40 0% - - 100% 1 mhos 0 - Yes - - -
Date/Time
(MST)
Sf
Temp Chem Water Layer Surface Precipitation
Sfc Pvt Sub Frz Factor Pct Dpth DpthThk IcePct Cond Salin FI Type Intens Accum Rate
12/03/2016 05:03 Ice Warning 21.7F - - 32F 40 0% - - 100% 1 mhos 0 - Yes - - -
12/03/2016 04:56 Ice Warning 21.9F - - 32F 40 0% - - 100% 1 mhos 0 - Yes - - -
12/03/2016 04:53 Ice Warning 21.9F - - 32F 40 0% - - 100% 1 mhos 0 - Yes - - -
12/03/2016 04:43 Ice Warning 21.7F - - 32F 40 0% - - 100% 1 mhos 0 - Yes - - -
12/03/2016 04:41 Ice Warning 21.7F - - 32F 45 0% - - 100% 1 mhos 0 - Yes - - -
12/03/2016 04:33 Ice Warning 21.7F - - 32F 40 0% - - 100% 1 mhos 0 - Yes - - -
12/03/2016 04:26 Ice Warning 21.9F - - 32F 40 0% - - 100% 1 mhos 0 - Yes - - -
12/03/2016 04:23 Ice Warning 21.9F - - 32F 40 0% - - 100% 1 mhos 0 - Yes - - -
12/03/2016 04:13 Ice Warning 21.9F - - 32F 40 0% - - 100% 1 mhos 0 - Yes - - -
12/03/2016 04:11 Ice Warning 22.1F - - 32F 40 0% - - 100% 1 mhos 0 - Yes - - -
12/03/2016 04:03 Ice Warning 22.5F - - 32F 40 0% - - 100% 1 mhos 0 - Yes - - -
12/03/2016 03:56 Ice Warning 22.5F - - 32F 40 0% - - 100% 0 mhos 0 - Yes - - -
12/03/2016 03:53 Ice Warning 22.5F - - 32F 40 0% - - 100% 0 mhos 0 - Yes - - -
12/03/2016 03:42 Ice Warning 22.5F - - 32F 35 0% - - 100% 0 mhos 0 - Yes - - -
12/03/2016 03:41 Ice Warning 22.5F - - 32F 35 0% - - 100% 0 mhos 0 - Yes - - -
Date/Time
(MST)
Sf
Temp Chem Water Layer Surface Precipitation
Sfc Pvt Sub Frz Factor Pct Dpth DpthThk IcePct Cond Salin FI Type Intens Accum Rate
12/03/2016 03:32 Ice Warning 22.6F - - 32F 35 0% - - 100% 0 mhos 0 - Yes - - -
12/03/2016 03:26 Ice Warning 22.5F - - 32F 35 0% - - 100% 0 mhos 0 - Yes - - -
12/03/2016 03:22 Ice Warning 22.5F - - 32F 35 0% - - 100% 0 mhos 0 - Yes - - -
12/03/2016 03:12 Ice Warning 22.5F - - 32F 30 0% - - 100% 0 mhos 0 - Yes - - -
12/03/2016 03:11 Ice Warning 22.6F - - 32F 30 0% - - 100% 0 mhos 0 - Yes - - -
12/03/2016 03:02 Ice Warning 22.5F - - 32F 30 0% - - 100% 0 mhos 0 - Yes - - -
12/03/2016 02:56 Ice Warning 22.5F - - 32F 30 0% - - 100% 0 mhos 0 - Yes - - -
12/03/2016 02:52 Ice Warning 22.6F - - 32F 30 0% - - 100% 0 mhos 0 - Yes - - -
12/03/2016 02:42 Ice Warning 22.5F - - 32F 40 0% - - 100% 0 mhos 0 - Yes - - -
12/03/2016 02:41 Ice Warning 22.5F - - 32F 40 0% - - 100% 0 mhos 0 - Yes - - -
12/03/2016 02:32 Ice Warning 22.5F - - 32F 10 0% - - 100% 0 mhos 0 - Yes - - -
12/03/2016 02:26 Ice Warning 22.5F - - 32F 5 0% - - 100% 0 mhos 0 - Yes - - -
12/03/2016 02:22 Ice Warning 22.6F - - 32F 5 0% - - 100% 0 mhos 0 - Yes - - -
12/03/2016 02:12 Ice Warning 22.6F - - 32F 5 0% - - 100% 0 mhos 0 - Yes - - -
12/03/2016 02:11 Ice Warning 22.5F - - 32F 5 0% - - 100% 0 mhos 0 - Yes - - -
Date/Time
(MST)
Sf
Temp Chem Water Layer Surface Precipitation
Sfc Pvt Sub Frz Factor Pct Dpth DpthThk IcePct Cond Salin FI Type Intens Accum Rate
12/03/2016 02:02 Ice Warning 22.6F - - 32F 10 0% - - 100% 0 mhos 0 - Yes - - -
12/03/2016 01:55 Ice Warning 22.8F - - 32F 10 0% - - 100% 0 mhos 0 - Yes - - -
12/03/2016 01:52 Ice Warning 22.6F - - 32F 10 0% - - 100% 0 mhos 0 - Yes - - -
12/03/2016 01:42 Ice Warning 22.6F - - 32F 10 0% - - 100% 0 mhos 0 - Yes - - -
12/03/2016 01:40 Ice Warning 22.6F - - 32F 10 0% - - 100% 0 mhos 0 - Yes - - -
12/03/2016 01:32 Ice Warning 22.5F - - 32F 10 0% - - 100% 0 mhos 0 - Yes - - -
12/03/2016 01:26 Ice Warning 22.6F - - 32F 10 0% - - 100% 0 mhos 0 - Yes - - -
12/03/2016 01:22 Ice Warning 22.5F - - 32F 10 0% - - 100% 0 mhos 0 - None None - -
12/03/2016 01:12 Ice Warning 22.5F - - 32F 10 0% - - 100% 0 mhos 0 - Yes - - -
12/03/2016 01:11 Ice Warning 22.5F - - 32F 10 0% - - 100% 0 mhos 0 - Yes - - -
12/03/2016 01:02 Ice Warning 22.5F - - 32F 10 0% - - 100% 0 mhos 0 - Yes - - -
12/03/2016 00:55 Ice Warning 22.5F - - 32F 10 0% - - 100% 0 mhos 0 - Yes - - -
12/03/2016 00:52 Ice Warning 22.5F - - 32F 10 0% - - 100% 0 mhos 0 - Yes - - -
12/03/2016 00:42 Ice Warning 22.5F - - 32F 10 0% - - 100% 0 mhos 0 - Yes - - -
12/03/2016 00:41 Ice Warning 22.5F - - 32F 10 0% - - 100% 0 mhos 0 - Yes - - -
Date/Time
(MST)
Sf
Temp Chem Water Layer Surface Precipitation
Sfc Pvt Sub Frz Factor Pct Dpth DpthThk IcePct Cond Salin FI Type Intens Accum Rate
12/03/2016 00:32 Ice Warning 22.5F - - 32F 10 0% - - 100% 0 mhos 0 - Yes - - -
12/03/2016 00:26 Ice Warning 22.5F - - 32F 10 0% - - 100% 0 mhos 0 - Yes - - -
12/03/2016 00:21 Ice Warning 22.5F - - 32F 10 0% - - 100% 0 mhos 0 - Yes - - -
12/03/2016 00:11 Ice Warning 22.6F - - 32F 10 0% - - 100% 0 mhos 0 - Yes - - -
12/03/2016 00:11 Ice Warning 22.5F - - 32F 10 0% - - 100% 0 mhos 0 - Yes - - -
12/03/2016 00:01 Ice Warning 22.6F - - 32F 10 0% - - 100% 0 mhos 0 - Yes - - -
12/02/2016 23:56 Ice Warning 22.6F - - 32F 10 0% - - 100% 0 mhos 0 - Yes - - -
12/02/2016 23:51 Ice Warning 22.8F - - 32F 10 0% - - 100% 0 mhos 0 - Yes - - -
12/02/2016 23:41 Ice Warning 23.0F - - 32F 10 0% - - 100% 0 mhos 0 - Yes - - -
12/02/2016 23:41 Ice Warning 22.8F - - 32F 10 0% - - 100% 0 mhos 0 - Yes - - -
12/02/2016 23:31 Ice Warning 22.8F - - 32F 10 0% - - 100% 0 mhos 0 - Yes - - -
12/02/2016 23:26 Ice Warning 22.8F - - 32F 10 0% - - 100% 0 mhos 0 - Yes - - -
12/02/2016 23:21 Ice Warning 22.8F - - 32F 25 0% - - 100% 0 mhos 0 - Yes - - -
12/02/2016 23:11 Ice Warning 22.8F - - 32F 25 0% - - 100% 0 mhos 0 - Yes - - -
12/02/2016 23:11 Ice Warning 23.0F - - 32F 25 0% - - 100% 0 mhos 0 - Yes - - -
Date/Time
(MST)
Sf
Temp Chem Water Layer Surface Precipitation
Sfc Pvt Sub Frz Factor Pct Dpth DpthThk IcePct Cond Salin FI Type Intens Accum Rate
12/02/2016 23:01 Ice Warning 23.0F - - 32F 25 0% - - 100% 0 mhos 0 - Yes - - -
12/02/2016 22:56 Ice Warning 23.0F - - 32F 25 0% - - 100% 0 mhos 0 - Yes - - -
12/02/2016 22:51 Ice Warning 23.2F - - 32F 20 0% - - 100% 0 mhos 0 - Yes - - -
12/02/2016 22:41 Ice Warning 23.2F - - 32F 5 0% - - 100% 0 mhos 0 - Yes - - -
12/02/2016 22:41 Ice Warning 23.2F - - 32F 5 0% - - 100% 0 mhos 0 - Yes - - -
12/02/2016 22:31 Ice Warning 23.4F - - 32F 5 0% - - 100% 0 mhos 0 - Yes - - -
12/02/2016 22:26 Ice Warning 23.4F - - 32F 5 0% - - 100% 0 mhos 0 - Yes - - -
12/02/2016 22:21 Ice Warning 23.4F - - 32F 5 0% - - 100% 0 mhos 0 - Yes - - -
12/02/2016 22:11 Ice Warning 23.2F - - 32F 5 0% - - 100% 0 mhos 0 - Yes - - -
12/02/2016 22:11 Ice Warning 23.2F - - 32F 5 0% - - 100% 0 mhos 0 - Yes - - -
12/02/2016 22:01 Ice Warning 23.2F - - 32F 5 0% - - 100% 0 mhos 0 - None None - -
12/02/2016 21:56 Ice Warning 23.2F - - 32F 5 0% - - 100% 0 mhos 0 - None None - -
12/02/2016 21:51 Ice Warning 23.0F - - 32F 5 0% - - 100% 0 mhos 0 - None None - -
12/02/2016 21:41 Ice Warning 23.0F - - 32F 5 0% - - 100% 0 mhos 0 - None None - -
12/02/2016 21:41 Ice Warning 22.8F - - 32F 5 0% - - 100% 0 mhos 0 - None None - -
Date/Time
(MST)
Sf
Temp Chem Water Layer Surface Precipitation
Sfc Pvt Sub Frz Factor Pct Dpth DpthThk IcePct Cond Salin FI Type Intens Accum Rate
12/02/2016 21:31 Ice Warning 22.6F - - 32F 5 0% - - 100% 0 mhos 0 - None None - -
12/02/2016 21:26 Ice Warning 22.6F - - 32F 5 0% - - 100% 0 mhos 0 - None None - -
12/02/2016 21:21 Ice Warning 22.5F - - 32F 5 0% - - 100% 0 mhos 0 - None None - -
12/02/2016 21:11 Ice Warning 22.3F - - 32F 5 0% - - 100% 0 mhos 0 - None None - -
12/02/2016 21:11 Ice Warning 22.3F - - 32F 5 0% - - 100% 0 mhos 0 - None None - -
12/02/2016 21:00 Ice Warning 22.1F - - 32F 5 0% - - 100% 0 mhos 0 - None None - -
12/02/2016 20:56 Ice Warning 22.1F - - 32F 5 0% - - 100% 0 mhos 0 - None None - -
12/02/2016 20:50 Ice Warning 22.1F - - 32F 5 0% - - 100% 0 mhos 0 - None None - -
12/02/2016 20:41 Ice Warning 21.7F - - 32F 5 0% - - 100% 0 mhos 0 - None None - -
12/02/2016 20:40 Ice Warning 21.7F - - 32F 5 0% - - 100% 0 mhos 0 - None None - -
12/02/2016 20:30 Ice Warning 21.9F - - 32F 5 0% - - 100% 0 mhos 0 - None None - -
12/02/2016 20:26 Ice Warning 21.9F - - 32F 5 0% - - 100% 0 mhos 0 - None None - -
12/02/2016 20:20 Ice Warning 21.7F - - 32F 5 0% - - 100% 0 mhos 0 - None None - -
12/02/2016 20:11 Ice Warning 21.6F - - 32F 5 0% - - 100% 0 mhos 0 - None None - -
12/02/2016 20:10 Ice Warning 21.6F - - 32F 5 0% - - 100% 0 mhos 0 - None None - -
Date/Time
(MST)
Sf
Temp Chem Water Layer Surface Precipitation
Sfc Pvt Sub Frz Factor Pct Dpth DpthThk IcePct Cond Salin FI Type Intens Accum Rate
12/02/2016 20:00 Ice Warning 21.2F - - 32F 5 0% - - 100% 0 mhos 0 - None None - -
12/02/2016 19:56 Ice Warning 21.2F - - 32F 5 0% - - 100% 0 mhos 0 - None None - -
12/02/2016 19:50 Ice Warning 21.0F - - 32F 5 0% - - 100% 0 mhos 0 - None None - -
12/02/2016 19:41 Ice Warning 21.0F - - 32F 5 0% - - 100% 0 mhos 0 - None None - -
12/02/2016 19:40 Ice Warning 21.0F - - 32F 5 0% - - 100% 0 mhos 0 - None None - -
12/02/2016 19:30 Ice Warning 20.8F - - 32F 5 0% - - 100% 0 mhos 0 - None None - -
12/02/2016 19:26 Ice Warning 20.8F - - 32F 5 0% - - 100% 0 mhos 0 - None None - -
12/02/2016 19:20 Ice Warning 21.0F - - 32F 5 0% - - 100% 0 mhos 0 - None None - -
12/02/2016 19:11 Ice Warning 20.8F - - 32F 5 0% - - 100% 0 mhos 0 - None None - -
12/02/2016 19:10 Ice Warning 20.8F - - 32F 5 0% - - 100% 0 mhos 0 - None None - -
12/02/2016 19:00 Ice Warning 21.0F - - 32F 5 0% - - 100% 0 mhos 0 - None None - -
12/02/2016 18:56 Ice Warning 21.0F - - 32F 5 0% - - 100% 0 mhos 0 - None None - -
12/02/2016 18:50 Ice Warning 21.2F - - 32F 5 0% - - 100% 0 mhos 0 - None None - -
12/02/2016 18:41 Ice Warning 21.4F - - 32F 5 0% - - 100% 0 mhos 0 - None None - -
12/02/2016 18:40 Ice Warning 21.4F - - 32F 5 0% - - 100% 0 mhos 0 - None None - -
Date/Time
(MST)
Sf
Temp Chem Water Layer Surface Precipitation
Sfc Pvt Sub Frz Factor Pct Dpth DpthThk IcePct Cond Salin FI Type Intens Accum Rate
12/02/2016 18:30 Ice Warning 21.7F - - 32F 5 0% - - 100% 0 mhos 0 - None None - -
12/02/2016 18:26 Ice Warning 21.7F - - 32F 5 0% - - 100% 0 mhos 0 - None None - -
12/02/2016 18:20 Ice Warning 21.7F - - 32F 5 0% - - 100% 0 mhos 0 - None None - -
12/02/2016 18:11 Ice Warning 22.1F - - 32F 5 0% - - 100% 0 mhos 0 - None None - -
12/02/2016 18:10 Ice Warning 22.1F - - 32F 5 0% - - 100% 0 mhos 0 - None None - -
12/02/2016 18:00 Ice Warning 22.3F - - 32F 5 0% - - 100% 0 mhos 0 - None None - -
12/02/2016 17:56 Ice Warning 22.5F - - 32F 5 0% - - 100% 0 mhos 0 - None None - -
12/02/2016 17:49 Ice Warning 22.5F - - 32F 5 0% - - 100% 0 mhos 0 - None None - -
12/02/2016 17:41 Ice Warning 23.0F - - 32F 5 0% - - 100% 0 mhos 0 - None None - -
12/02/2016 17:39 Ice Warning 23.0F - - 32F 5 0% - - 100% 0 mhos 0 - None None - -
12/02/2016 17:29 Ice Warning 23.2F - - 32F 5 0% - - 100% 0 mhos 0 - None None - -
12/02/2016 17:26 Ice Warning 23.4F - - 32F 5 0% - - 100% 0 mhos 0 - None None - -
12/02/2016 17:19 Ice Warning 23.5F - - 32F 5 0% - - 100% 0 mhos 0 - None None - -
12/02/2016 17:11 Ice Warning 23.9F - - 32F 5 0% - - 100% 0 mhos 0 - None None - -
12/02/2016 17:09 Ice Warning 23.9F - - 32F 5 0% - - 100% 0 mhos 0 - None None - -
Date/Time
(MST)
Sf
Temp Chem Water Layer Surface Precipitation
Sfc Pvt Sub Frz Factor Pct Dpth DpthThk IcePct Cond Salin FI Type Intens Accum Rate
12/02/2016 16:59 Ice Warning 24.4F - - 32F 5 0% - - 100% 1 mhos 0 - None None - -
12/02/2016 16:56 Ice Warning 24.6F - - 32F 5 0% - - 100% 1 mhos 0 - None None - -
12/02/2016 16:49 Ice Warning 24.6F - - 32F 5 0% - - 100% 1 mhos 0 - None None - -
12/02/2016 16:41 Ice Warning 25.0F - - 32F 5 0% - - 100% 1 mhos 0 - None None - -
12/02/2016 16:39 Ice Warning 25.0F - - 32F 5 0% - - 100% 1 mhos 0 - None None - -
12/02/2016 16:29 Ice Warning 25.5F - - 32F 5 0% - - 100% 1 mhos 0 - None None - -
12/02/2016 16:26 Ice Warning 25.7F - - 32F 5 0% - - 100% 1 mhos 0 - None None - -
12/02/2016 16:19 Ice Warning 25.9F - - 32F 5 0% - - 100% 1 mhos 0 - None None - -
12/02/2016 16:11 Ice Warning 26.2F - - 32F 5 0% - - 100% 1 mhos 0 - None None - -
12/02/2016 16:09 Ice Warning 26.4F - - 32F 5 0% - - 100% 1 mhos 0 - None None - -
12/02/2016 15:59 Ice Warning 26.8F - - 32F 5 0% - - 100% 1 mhos 0 - None None - -
12/02/2016 15:56 Ice Warning 26.6F - - 32F 5 0% - - 100% 1 mhos 0 - None None - -
12/02/2016 15:49 Ice Warning 26.8F - - 32F 5 0% - - 100% 1 mhos 0 - None None - -
12/02/2016 15:41 Ice Warning 27.3F - - 32F 5 0% - - 100% 1 mhos 0 - None None - -
12/02/2016 15:39 Ice Warning 27.5F - - 32F 5 0% - - 100% 1 mhos 0 - None None - -
Date/Time
(MST)
Sf
Temp Chem Water Layer Surface Precipitation
Sfc Pvt Sub Frz Factor Pct Dpth DpthThk IcePct Cond Salin FI Type Intens Accum Rate
12/02/2016 15:29 Ice Warning 27.9F - - 32F 5 0% - - 100% 1 mhos 0 - None None - -
12/02/2016 15:26 Ice Warning 27.9F - - 32F 5 0% - - 100% 1 mhos 0 - None None - -
12/02/2016 15:19 Ice Warning 28.2F - - 32F 5 0% - - 100% 1 mhos 0 - None None - -
12/02/2016 15:11 Ice Warning 28.8F - - 32F 5 0% - - 100% 1 mhos 0 - None None - -
12/02/2016 15:09 Ice Warning 28.9F - - 32F 5 0% - - 100% 1 mhos 0 - None None - -
12/02/2016 14:59 Ice Warning 30.0F - - 32F 15 0% - - 100% 1 mhos 0 - None None - -
12/02/2016 14:56 Ice Warning 31.3F - - 32F 25 0% - - 100% 2 mhos 0 - Yes - - -
12/02/2016 14:49 Wet 32.9F - - 32F 40 0% 0.00 in - 0% 2 mhos 0 - None None - -
12/02/2016 14:41 Wet 32.9F - - 32F 70 0% 0.00 in - 0% 3 mhos 0 - None None - -
12/02/2016 14:39 Wet 32.5F - - 32F 75 0% 0.00 in - 0% 3 mhos 0 - None None - -
12/02/2016 14:28 Wet 32.5F - - 32F 70 0% 0.00 in - 0% 3 mhos 0 - None None - -
12/02/2016 14:26 Ice Warning 32.0F - - 32F 70 0% - - 100% 3 mhos 0 - None None - -
12/02/2016 14:18 Ice Warning 30.7F - - 32F 80 0% - - 100% 4 mhos 0 - None None - -
12/02/2016 14:11 Wet 33.4F - - 32F 95 0% 0.00 in - 0% 4 mhos 0 - Yes - - -
12/02/2016 14:08 Wet 33.4F - - 32F 65 0% 0.00 in - 0% 4 mhos 0 - Yes - - -
Date/Time
(MST)
Sf
Temp Chem Water Layer Surface Precipitation
Sfc Pvt Sub Frz Factor Pct Dpth DpthThk IcePct Cond Salin FI Type Intens Accum Rate
12/02/2016 13:58 Wet 33.1F - - 32F 75 0% 0.00 in - 0% 4 mhos 0 - None None - -
12/02/2016 13:56 Wet 33.4F - - 32F 75 0% 0.00 in - 0% 4 mhos 0 - Yes - - -
12/02/2016 13:48 Wet 33.8F - - 32F 80 0% 0.00 in - 0% 4 mhos 0 - None None - -
12/02/2016 13:41 Ice Warning 31.8F - - 32F 95 0% - - 100% 4 mhos 0 - Yes - - -
12/02/2016 13:38 Wet 33.6F - - 32F 90 0% 0.00 in - 0% 4 mhos 0 - None None - -
12/02/2016 13:28 Wet 35.2F - - 32F 90 0% 0.00 in - 0% 4 mhos 0 - None None - -
12/02/2016 13:26 Wet 36.1F - - 32F 95 0% 0.00 in - 0% 4 mhos 0 - None None - -
12/02/2016 13:18 Wet 36.1F - - 32F 80 0% 0.00 in - 0% 4 mhos 0 - Yes - - -
12/02/2016 13:11 Wet 34.7F - - 32F 85 0% 0.00 in - 0% 4 mhos 0 - Yes - - -
12/02/2016 13:08 Wet 35.1F - - 32F 95 0% 0.00 in - 0% 4 mhos 0 - Yes - - -
12/02/2016 12:58 Wet 35.2F - - 32F 95 0% 0.00 in - 0% 4 mhos 0 - None None - -
12/02/2016 12:56 Wet 35.6F - - 32F 95 0% 0.00 in - 0% 3 mhos 0 - Yes - - -
12/02/2016 12:48 Wet 35.8F - - 32F 95 0% 0.00 in - 0% 3 mhos 0 - Yes - - -
Change End Date:

Copyright © 1998-2015 Vaisala, Inc.
All Rights Reserved
Send comments about the data to:
SCAN Web ® is a registered trademark of Vaisala, Inc.
SCAN Web Version 6.0